Simultaneous Nadir Overpasses (SNOs) Predictions

Prediction of SNOs between LANDSAT-8 and NOAA-19 Satellite Orbit:

Table of predicted SNOs for the next 14.0 days since TLE Epoch: 10/3/2020
Index Date (LANDSAT-8) Time (LANDSAT-8) Lat,Lon (LANDSAT-8) SZA (LANDSAT-8 ) Date (NOAA-19) Time (NOAA-19) Lat,Lon (NOAA-19) SZA (NOAA-19 ) Distance(km) Time Diff (sec)
1 10/03/2020 16:11:31 -79.98, 144.69 94.38 10/03/2020 16:10:34 -79.97, 144.80 94.41 2.83 57
2 10/03/2020 17:00:58 79.95, -47.94 85.58 10/03/2020 17:01:38 79.96, -47.80 85.62 2.92 40
3 10/05/2020 22:34:43 -79.95, 48.62 93.55 10/05/2020 22:34:50 -79.98, 48.67 93.52 3.50 7
4 10/08/2020 04:08:26 79.98, 145.43 87.36 10/08/2020 04:08:09 79.99, 145.28 87.36 3.07 17
5 10/08/2020 04:57:54 -79.95, -47.18 92.68 10/08/2020 04:59:05 -79.97, -47.15 92.63 2.20 71
6 10/10/2020 09:42:11 -79.98,-118.01 91.79 10/10/2020 09:41:21 -79.99,-117.95 91.79 1.98 50
7 10/10/2020 10:31:37 79.98, 49.60 88.23 10/10/2020 10:32:23 79.97, 49.60 88.24 0.67 46
8 10/12/2020 15:15:54 80.00, -21.25 89.11 10/12/2020 15:14:43 80.10, -22.65 89.04 29.07 71
9 10/12/2020 16:05:22 -79.98, 146.17 90.93 10/12/2020 16:05:36 -79.98, 146.22 90.91 1.32 14
10 10/14/2020 21:39:05 80.00,-117.09 89.95 10/14/2020 21:38:53 79.99,-117.09 89.94 0.84 12
